Powrót do katalogu

FR 1

AktywnyNaukaLEO
NORAD 1814·PAYLOAD·🇫🇷 France

Wystrzelony Dec 6, 1965 z Vandenberg Space Force Base

Loading…

Następne Przeloty (najbliższe 24 godziny)

TLE

ŚwieżeSource: Space-Track

Epoka: Sep 14, 2026, 06:40 UTC

1 01814U 65101A   26257.27783373  .00000611  00000-0  10052-3 0  9998
2 01814  75.8659 197.2428 0006181 240.0230 120.0339 14.71781721 69200

Śledź FR 1 w czasie rzeczywistym z AllMySat

Download on the App Store